Location: Unspecified
(28.0250°N, 120.8490°E)
Time: 19:53:40
(UTC+00:00)

Daily predictions for brighter satellites

Satellite Brightness Start Highest point End
(mag) Time Altitude Azimuth Time Altitude Azimuth Time Altitude Azimuth
Cosmos 2297 Rocket 4.3 19:25:54 22° ESE 19:25:54 22° ESE 19:28:15 10° SE
USA 267 4.4 19:37:48 10° E 19:43:27 33° NE 19:43:48 33° NE
ATLAS 5 CENTAUR R/B 4.1 19:32:45 10° NNW 19:48:37 51° NE 19:53:10 10° ESE
ATLAS 5 CENTAUR R/B 4.3 20:10:04 10° SE 20:11:28 12° ESE 20:12:51 10° E
Cosmos 1980 Rocket 3.6 20:20:56 26° NNE 20:20:56 26° NNE 20:23:15 10° NNE
Cosmos 2221 4.0 20:20:46 31° SSE 20:20:46 31° SSE 20:23:07 10° SSE
CZ-2C R/B 3.2 20:27:54 23° ENE 20:27:54 23° ENE 20:29:24 10° ENE
SL-16 R/B 4.4 20:24:08 10° SSE 20:28:35 24° ESE 20:33:02 10° NE
NOAA 11 4.0 20:30:32 10° NNE 20:36:01 87° WNW 20:41:30 10° SSW
Cosmos 962 Rocket 4.4 20:35:37 33° NNW 20:38:43 77° W 20:45:02 10° S
BREEZE M DEB (TANK) 3.1 20:38:50 64° ESE 20:38:50 64° ESE 20:44:52 10° NE
Meteor 2-20 4.3 20:37:02 10° S 20:43:06 85° W 20:49:11 10° N
PSLV R/B 3.5 20:40:28 10° NNE 20:44:45 85° E 20:49:04 10° S
Cosmos 1954 Rocket 3.9 20:39:48 10° SSW 20:45:03 87° WNW 20:50:23 10° NNE
Cosmos 676 Rocket 4.0 20:39:55 10° S 20:45:09 82° ESE 20:50:28 10° NNE
Spot 4 Rocket 4.0 20:46:55 10° N 20:51:57 56° WNW 20:56:57 10° SSW
CZ-2C R/B 3.0 20:52:57 50° SSW 20:52:57 50° SSW 20:55:42 10° SSW
Cosmos 1842 Rocket 3.3 20:54:19 54° NNW 20:55:11 76° W 20:59:30 10° S
Cosmos 2322 Rocket 4.2 20:50:56 10° SSE 20:55:44 29° ESE 21:00:31 10° NE
Cosmos 1441 Rocket 4.4 20:53:15 13° NNE 20:56:11 39° E 20:59:38 10° SSE
Cosmos 2218 Rocket 4.0 20:50:08 10° N 20:56:25 86° E 21:02:36 10° S
GPS 2-14 Rocket1 4.1 20:58:49 24° SSW 20:59:35 26° S 21:02:50 10° SE
SeaSat 1 2.5 20:57:05 10° S 21:01:54 58° WSW 21:03:36 38° NW
Cosmos 389 Rocket 3.0 21:00:38 10° S 21:02:54 41° SSW 21:02:54 41° SSW
Aurora 2 Rocket 3.7 21:00:44 29° W 21:04:48 66° S 21:10:26 10° ESE
Cosmos 2227 Rocket 2.4 21:03:09 36° WNW 21:04:53 48° WSW 21:10:17 10° S
Cosmos 1782 2.9 21:06:07 49° W 21:06:07 49° W 21:09:54 10° SSW
Cosmos 2297 Rocket 3.3 21:07:48 25° WSW 21:07:48 25° WSW 21:11:39 10° SSW
SJ-12 3.7 21:03:14 10° N 21:07:14 67° WNW 21:11:13 10° SSW
Cosmos 2278 3.6 21:01:49 10° SSW 21:07:22 60° WNW 21:12:56 10° N
Cosmos 1933 3.8 21:09:09 38° WSW 21:09:09 38° WSW 21:12:33 10° SSW
Hubble Space Telescope 1.4 21:07:33 27° SW 21:09:27 50° SSE 21:13:24 10° E
Cosmos 1346 Rocket 2.8 21:07:40 16° N 21:10:50 83° E 21:14:47 10° S
Cosmos 1315 Rocket 2.6 21:08:11 10° S 21:12:06 77° W 21:16:04 10° N
DELTA 2 R/B (1) 3.9 21:14:51 29° W 21:17:29 54° SW 21:22:55 10° SE
Cosmos 2082 3.7 21:15:55 10° NNW 21:21:36 89° ENE 21:27:13 10° SSE
Nadezhda 3 Rocket 4.0 21:17:04 10° S 21:23:14 87° E 21:29:29 10° N
Cosmos 2360 Rocket 4.0 21:19:39 10° SSE 21:24:39 34° ESE 21:29:38 10° NE
USA 267 3.4 21:19:49 10° SSE 21:26:10 55° SW 21:31:10 17° NW
Meteor 2-6 Rocket 4.2 21:25:59 10° N 21:31:28 82° E 21:36:50 10° S
Cosmos 1862 4.3 21:30:30 10° SW 21:33:47 24° W 21:37:05 10° NNW
USA 290 2.7 21:31:12 10° SW 21:34:12 36° WNW 21:37:12 10° N
SL-08 R/B 4.5 21:31:21 10° SSW 21:35:10 23° W 21:37:11 18° WNW
NOAA 12 4.0 21:32:22 10° NNE 21:37:39 87° WNW 21:42:51 10° SSW
CZ-4B R/B 3.5 21:36:39 10° N 21:40:20 73° WNW 21:43:55 10° SSW
MINOTAUR 4 R/B 3.9 21:37:05 10° SSE 21:40:30 86° ENE 21:43:56 10° N
OAO 3 Rocket 3.1 21:38:16 18° WNW 21:41:41 75° NNE 21:46:19 10° ESE
Cosmos 2263 Rocket 2.3 21:37:03 10° NNW 21:42:41 79° ENE 21:48:15 10° SSE
Cosmos 1850 Rocket 4.0 21:38:10 10° SSW 21:43:29 76° WNW 21:48:50 10° NNE
Landsat 4 4.0 21:40:13 10° NNE 21:43:52 68° E 21:47:30 10° S
Timation 2 Rocket 4.3 21:40:08 10° NNW 21:46:04 64° ENE 21:52:05 10° SSE
Okean 3 Rocket 4.4 21:43:48 10° S 21:48:09 56° E 21:52:28 10° NNE
Fermi 4.1 21:45:17 13° W 21:48:48 58° S 21:52:48 10° ESE
COSMO-SKYMED 1 2.9 21:45:00 10° S 21:49:07 44° W 21:53:15 10° NNW
Cosmos 2219 4.4 21:48:07 13° WNW 21:51:40 22° W 21:55:51 10° SSW
SJ-7 4.4 21:48:59 10° N 21:52:52 56° WNW 21:56:47 10° SSW
H-2A R/B 1.9 21:49:28 10° N 21:54:23 66° WNW 21:59:22 10° SSW
GPS 2-04 Rocket1 3.8 21:52:27 12° NW 21:55:20 28° N 21:58:37 10° ENE
ATLAS 5 CENTAUR R/B 2.1 21:52:33 10° WSW 21:55:29 24° NW 21:58:34 10° N
FengYun 1-2 T 4.3 21:54:23 10° N 21:59:44 55° WNW 22:05:03 10° SSW
ARGOS 3.7 21:57:07 10° NNE 22:02:27 65° ESE 22:07:43 10° S
Cosmos 2219 Rocket 4.4 21:58:21 10° SSE 22:03:11 30° ESE 22:08:01 10° NE
CZ-2C R/B 1.8 22:01:29 10° WNW 22:04:44 34° N 22:08:09 10° NE
Cosmos 540 Rocket 3.7 22:01:25 10° NNW 22:06:35 78° ENE 22:11:44 10° SSE
COSMOS 2455 3.5 22:02:14 10° WSW 22:07:27 31° WNW 22:12:43 10° N
CZ-4B R/B 4.4 22:04:35 10° NNW 22:08:20 24° WNW 22:12:04 10° WSW
Cosmos 1602 3.8 22:05:00 10° SSW 22:08:48 59° W 22:12:37 10° N
Cosmos 468 Rocket 4.0 22:04:35 10° NNW 22:09:52 70° WSW 22:15:06 10° S
SL-16 R/B 2.9 22:07:22 10° SW 22:12:24 33° WNW 22:17:28 10° N
